Date,TemperatureHighF,TemperatureAvgF,TemperatureLowF,DewpointHighF,DewpointAvgF,DewpointLowF,HumidityHigh,HumidityAvg,HumidityLow,PressureMaxIn,PressureMinIn,WindSpeedMaxMPH,WindSpeedAvgMPH,GustSpeedMaxMPH,PrecipitationSumIn
2013-4-1,46,37,29,32,24,17,81,60,33,30.34,30.07,22,12,28,0.00
2013-4-2,49,36,22,27,22,13,99,60,24,30.42,30.32,13,6,17,0.00
2013-4-3,52,38,25,30,24,21,94,61,31,30.49,30.32,16,6,21,0.00
2013-4-4,63,47,29,34,28,24,90,53,26,30.32,30.09,11,3,14,0.00
2013-4-5,66,51,35,39,35,27,99,60,25,30.26,30.05,14,6,16,0.00
2013-4-6,73,61,50,53,43,38,71,53,34,30.05,29.72,30,15,40,0.01
2013-4-7,78,60,40,53,46,40,99,63,29,30.01,29.80,11,4,14,0.00
2013-4-8,77,64,55,67,60,53,99,89,61,29.90,29.68,22,8,37,0.64
2013-4-9,78,70,62,66,63,60,99,81,66,29.88,29.82,21,10,30,0.00
2013-4-10,67,52,45,65,52,45,99,99,91,30.00,29.71,28,12,36,0.99
2013-4-11,49,43,38,49,41,32,99,92,79,29.76,29.69,25,14,30,0.05
2013-4-12,44,39,36,37,35,33,92,85,77,30.03,29.73,21,14,27,0.00
2013-4-13,40,38,33,36,32,29,87,80,71,30.10,30.02,17,12,23,0.00
2013-4-14,79,62,46,57,49,42,99,67,33,29.95,29.58,28,13,36,0.27
2013-4-15,60,54,43,60,50,41,99,89,69,30.05,29.77,16,8,21,0.20
2013-4-16,50,46,41,47,41,37,99,85,70,30.24,30.06,16,11,19,0.06
2013-4-17,57,48,34,57,47,34,99,95,79,30.24,29.78,28,16,43,1.31
2013-4-18,64,52,38,63,51,33,99,96,82,29.81,29.52,36,16,36,2.20
2013-4-19,46,39,36,34,32,30,87,74,56,30.12,29.77,29,20,34,0.00
2013-4-20,55,42,30,37,32,28,99,70,41,30.40,30.13,8,5,13,0.00
2013-4-21,64,51,39,49,42,35,89,72,51,30.44,30.27,18,12,22,0.00
2013-4-22,71,60,44,51,44,38,83,58,31,30.30,30.02,16,8,21,0.08
2013-4-23,57,44,38,52,43,37,99,97,80,30.11,29.99,19,11,24,0.59
2013-4-24,52,43,35,38,35,31,99,75,45,30.25,30.09,17,11,24,0.02
2013-4-25,63,50,38,44,37,33,94,64,35,30.38,30.22,17,9,24,0.00
2013-4-26,63,54,44,51,45,38,86,73,59,30.37,30.28,21,9,27,0.00
2013-4-27,54,50,44,54,49,43,99,97,84,30.34,30.04,13,6,15,0.14
2013-4-28,68,57,50,57,53,50,99,89,65,30.03,29.91,10,7,14,0.01
2013-4-29,83,66,49,66,58,49,99,77,54,29.96,29.73,17,10,23,0.00
2013-4-30,86,76,67,64,60,53,88,61,32,29.96,29.77,21,12,32,0.00